Time,TemperatureF,DewpointF,PressureIn,WindDirection,WindDirectionDegrees,WindSpeedMPH,WindSpeedGustMPH,Humidity,HourlyPrecipIn,Conditions,Clouds,dailyrainin,SoftwareType,DateUTC
2013-07-12 00:02:00,67.0,60.0,30.02,SE,127,0.0,-999.0,78,-99.99,,,-99.99,,2013-07-12 05:02:00,
2013-07-12 00:11:00,67.0,60.0,30.03,SE,127,0.0,-999.0,78,-99.99,,,-99.99,,2013-07-12 05:11:00,
2013-07-12 00:22:00,66.0,59.0,30.03,SE,130,1.0,-999.0,79,-99.99,,,-99.99,,2013-07-12 05:22:00,
2013-07-12 00:32:00,66.0,59.0,30.03,SE,130,1.0,-999.0,79,-99.99,,,-99.99,,2013-07-12 05:32:00,
2013-07-12 00:43:00,66.0,59.0,30.03,SE,132,2.0,-999.0,79,-99.99,,,-99.99,,2013-07-12 05:43:00,
2013-07-12 00:53:00,66.0,60.0,30.03,SE,129,0.0,-999.0,80,-99.99,,,-99.99,,2013-07-12 05:53:00,
2013-07-12 01:01:00,66.0,60.0,30.03,SE,129,0.0,-999.0,80,-99.99,,,-99.99,,2013-07-12 06:01:00,
2013-07-12 01:11:00,65.0,59.0,30.03,SE,130,1.0,-999.0,81,-99.99,,,-99.99,,2013-07-12 06:11:00,
2013-07-12 01:22:00,65.0,59.0,30.03,SE,129,2.0,-999.0,81,-99.99,,,-99.99,,2013-07-12 06:22:00,
2013-07-12 01:33:00,65.0,59.0,30.03,SE,129,2.0,-999.0,81,-99.99,,,-99.99,,2013-07-12 06:33:00,
2013-07-12 01:42:00,65.0,59.0,30.03,SE,129,0.0,-999.0,81,-99.99,,,-99.99,,2013-07-12 06:42:00,
2013-07-12 01:52:00,64.0,58.0,30.03,SE,132,0.0,-999.0,82,-99.99,,,-99.99,,2013-07-12 06:52:00,
2013-07-12 02:02:00,64.0,58.0,30.03,SE,132,0.0,-999.0,82,-99.99,,,-99.99,,2013-07-12 07:02:00,
2013-07-12 02:12:00,64.0,58.0,30.03,SE,132,0.0,-999.0,82,-99.99,,,-99.99,,2013-07-12 07:12:00,
2013-07-12 02:22:00,64.0,58.0,30.03,SE,132,1.0,-999.0,82,-99.99,,,-99.99,,2013-07-12 07:22:00,
2013-07-12 02:32:00,64.0,58.0,30.03,SE,132,1.0,-999.0,82,-99.99,,,-99.99,,2013-07-12 07:32:00,
2013-07-12 02:43:00,64.0,58.0,30.03,SE,132,1.0,-999.0,82,-99.99,,,-99.99,,2013-07-12 07:43:00,
2013-07-12 02:52:00,64.0,59.0,30.03,SE,134,2.0,-999.0,83,-99.99,,,-99.99,,2013-07-12 07:52:00,
2013-07-12 03:01:00,64.0,59.0,30.03,SE,134,2.0,-999.0,83,-99.99,,,-99.99,,2013-07-12 08:01:00,
2013-07-12 03:11:00,63.0,58.0,30.03,SE,132,1.0,-999.0,84,-99.99,,,-99.99,,2013-07-12 08:11:00,
2013-07-12 03:21:00,63.0,58.0,30.03,SE,132,1.0,-999.0,85,-99.99,,,-99.99,,2013-07-12 08:21:00,
2013-07-12 03:32:00,63.0,58.0,30.03,SE,132,1.0,-999.0,85,-99.99,,,-99.99,,2013-07-12 08:32:00,
2013-07-12 03:42:00,62.0,57.0,30.03,SE,133,1.0,-999.0,85,-99.99,,,-99.99,,2013-07-12 08:42:00,
2013-07-12 03:53:00,62.0,58.0,30.04,SE,130,2.0,-999.0,86,-99.99,,,-99.99,,2013-07-12 08:53:00,
2013-07-12 04:02:00,62.0,58.0,30.04,SE,130,2.0,-999.0,86,-99.99,,,-99.99,,2013-07-12 09:02:00,
2013-07-12 04:12:00,62.0,58.0,30.04,SE,129,1.0,-999.0,86,-99.99,,,-99.99,,2013-07-12 09:12:00,
2013-07-12 04:22:00,62.0,58.0,30.04,SE,130,0.0,-999.0,86,-99.99,,,-99.99,,2013-07-12 09:22:00,
2013-07-12 04:32:00,62.0,58.0,30.04,SE,130,0.0,-999.0,86,-99.99,,,-99.99,,2013-07-12 09:32:00,
2013-07-12 04:43:00,62.0,58.0,30.04,SE,131,3.0,-999.0,86,-99.99,,,-99.99,,2013-07-12 09:43:00,
2013-07-12 04:52:00,62.0,58.0,30.04,SE,129,2.0,-999.0,86,-99.99,,,-99.99,,2013-07-12 09:52:00,
2013-07-12 05:01:00,62.0,58.0,30.04,SE,129,2.0,-999.0,86,-99.99,,,-99.99,,2013-07-12 10:01:00,
2013-07-12 05:11:00,61.0,57.0,30.05,SE,129,3.0,-999.0,87,-99.99,,,-99.99,,2013-07-12 10:11:00,
2013-07-12 05:22:00,61.0,57.0,30.05,SE,132,2.0,-999.0,86,-99.99,,,-99.99,,2013-07-12 10:22:00,
2013-07-12 05:33:00,61.0,57.0,30.05,SE,132,2.0,-999.0,86,-99.99,,,-99.99,,2013-07-12 10:33:00,
2013-07-12 05:42:00,61.0,57.0,30.05,SE,131,1.0,-999.0,86,-99.99,,,-99.99,,2013-07-12 10:42:00,
2013-07-12 05:52:00,61.0,57.0,30.05,SE,125,1.0,-999.0,86,-99.99,,,-99.99,,2013-07-12 10:52:00,
2013-07-12 06:02:00,61.0,57.0,30.05,SE,125,1.0,-999.0,86,-99.99,,,-99.99,,2013-07-12 11:02:00,
2013-07-12 06:12:00,61.0,57.0,30.05,SE,130,0.0,-999.0,86,-99.99,,,-99.99,,2013-07-12 11:12:00,
2013-07-12 06:22:00,61.0,57.0,30.05,SE,139,4.0,-999.0,87,-99.99,,,-99.99,,2013-07-12 11:22:00,
2013-07-12 06:32:00,61.0,57.0,30.05,SE,139,4.0,-999.0,87,-99.99,,,-99.99,,2013-07-12 11:32:00,
2013-07-12 06:43:00,61.0,57.0,30.05,SE,130,3.0,-999.0,87,-99.99,,,-99.99,,2013-07-12 11:43:00,
2013-07-12 06:52:00,62.0,57.0,30.06,SE,139,2.0,-999.0,85,-99.99,,,-99.99,,2013-07-12 11:52:00,
2013-07-12 07:02:00,62.0,57.0,30.06,SE,139,2.0,-999.0,85,-99.99,,,-99.99,,2013-07-12 12:02:00,
2013-07-12 07:11:00,63.0,58.0,30.06,SE,130,2.0,-999.0,83,-99.99,,,-99.99,,2013-07-12 12:11:00,
2013-07-12 07:22:00,64.0,58.0,30.06,ENE,77,1.0,-999.0,81,-99.99,,,-99.99,,2013-07-12 12:22:00,
2013-07-12 07:32:00,64.0,58.0,30.06,ENE,77,1.0,-999.0,81,-99.99,,,-99.99,,2013-07-12 12:32:00,
2013-07-12 07:43:00,66.0,59.0,30.06,SE,130,2.0,-999.0,78,-99.99,,,-99.99,,2013-07-12 12:43:00,
2013-07-12 07:52:00,67.0,60.0,30.07,SE,142,4.0,-999.0,77,-99.99,,,-99.99,,2013-07-12 12:52:00,
2013-07-12 08:01:00,67.0,60.0,30.07,SE,142,4.0,-999.0,77,-99.99,,,-99.99,,2013-07-12 13:01:00,
2013-07-12 08:12:00,68.0,59.0,30.07,East,92,3.0,-999.0,74,-99.99,,,-99.99,,2013-07-12 13:12:00,
2013-07-12 08:22:00,70.0,61.0,30.07,SW,231,3.0,-999.0,72,-99.99,,,-99.99,,2013-07-12 13:22:00,
2013-07-12 08:32:00,70.0,61.0,30.07,SW,231,3.0,-999.0,72,-99.99,,,-99.99,,2013-07-12 13:32:00,
2013-07-12 08:43:00,71.0,60.0,30.07,SSE,153,3.0,-999.0,69,-99.99,,,-99.99,,2013-07-12 13:43:00,
2013-07-12 08:53:00,71.0,60.0,30.07,SW,232,4.0,-999.0,68,-99.99,,,-99.99,,2013-07-12 13:53:00,
2013-07-12 09:02:00,71.0,60.0,30.07,SW,232,4.0,-999.0,68,-99.99,,,-99.99,,2013-07-12 14:02:00,
2013-07-12 09:11:00,72.0,61.0,30.07,East,96,3.0,-999.0,68,-99.99,,,-99.99,,2013-07-12 14:11:00,
2013-07-12 09:22:00,73.0,61.0,30.06,South,169,3.0,-999.0,66,-99.99,,,-99.99,,2013-07-12 14:22:00,
2013-07-12 09:32:00,73.0,61.0,30.06,South,169,3.0,-999.0,66,-99.99,,,-99.99,,2013-07-12 14:32:00,
2013-07-12 09:44:00,74.0,62.0,30.06,NE,47,4.0,-999.0,66,-99.99,,,-99.99,,2013-07-12 14:44:00,
2013-07-12 09:53:00,74.0,61.0,30.06,South,171,4.0,-999.0,64,-99.99,,,-99.99,,2013-07-12 14:53:00,
2013-07-12 10:02:00,74.0,61.0,30.06,South,171,4.0,-999.0,64,-99.99,,,-99.99,,2013-07-12 15:02:00,
2013-07-12 10:11:00,75.0,61.0,30.06,SSW,201,4.0,-999.0,61,-99.99,,,-99.99,,2013-07-12 15:11:00,
2013-07-12 10:22:00,76.0,61.0,30.06,SSE,164,4.0,-999.0,60,-99.99,,,-99.99,,2013-07-12 15:22:00,
2013-07-12 10:33:00,76.0,61.0,30.06,SSE,164,4.0,-999.0,60,-99.99,,,-99.99,,2013-07-12 15:33:00,
2013-07-12 10:43:00,77.0,61.0,30.06,SW,231,5.0,-999.0,58,-99.99,,,-99.99,,2013-07-12 15:43:00,
2013-07-12 10:52:00,77.0,61.0,30.06,SW,232,5.0,-999.0,57,-99.99,,,-99.99,,2013-07-12 15:52:00,
2013-07-12 11:01:00,77.0,61.0,30.06,SW,232,5.0,-999.0,57,-99.99,,,-99.99,,2013-07-12 16:01:00,
2013-07-12 11:11:00,78.0,61.0,30.06,East,86,6.0,-999.0,55,-99.99,,,-99.99,,2013-07-12 16:11:00,
2013-07-12 11:22:00,78.0,61.0,30.06,North,351,6.0,-999.0,55,-99.99,,,-99.99,,2013-07-12 16:22:00,
2013-07-12 11:32:00,78.0,61.0,30.06,North,351,6.0,-999.0,55,-99.99,,,-99.99,,2013-07-12 16:32:00,
2013-07-12 11:43:00,79.0,60.0,30.06,WSW,238,5.0,-999.0,53,-99.99,,,-99.99,,2013-07-12 16:43:00,
2013-07-12 11:56:00,80.0,61.0,30.05,WSW,252,5.0,-999.0,52,-99.99,,,-99.99,,2013-07-12 16:56:00,
2013-07-12 12:05:00,80.0,61.0,30.05,WSW,252,5.0,-999.0,52,-99.99,,,-99.99,,2013-07-12 17:05:00,
2013-07-12 12:14:00,80.0,61.0,30.04,NE,55,5.0,-999.0,52,-99.99,,,-99.99,,2013-07-12 17:14:00,
2013-07-12 12:24:00,80.0,60.0,30.04,East,83,5.0,-999.0,51,-99.99,,,-99.99,,2013-07-12 17:24:00,
2013-07-12 12:37:00,80.0,60.0,30.04,East,83,5.0,-999.0,51,-99.99,,,-99.99,,2013-07-12 17:37:00,
2013-07-12 12:45:00,81.0,61.0,30.04,East,91,6.0,-999.0,50,-99.99,,,-99.99,,2013-07-12 17:45:00,
2013-07-12 12:53:00,81.0,60.0,30.03,ESE,113,7.0,-999.0,49,-99.99,,,-99.99,,2013-07-12 17:53:00,
2013-07-12 13:07:00,81.0,60.0,30.03,ESE,113,7.0,-999.0,49,-99.99,,,-99.99,,2013-07-12 18:07:00,
2013-07-12 13:14:00,82.0,60.0,30.03,ESE,114,5.0,-999.0,48,-99.99,,,-99.99,,2013-07-12 18:14:00,
2013-07-12 13:27:00,82.0,60.0,30.03,SE,128,7.0,-999.0,48,-99.99,,,-99.99,,2013-07-12 18:27:00,
2013-07-12 13:34:00,82.0,60.0,30.03,SE,128,7.0,-999.0,48,-99.99,,,-99.99,,2013-07-12 18:34:00,
2013-07-12 13:48:00,82.0,60.0,30.03,SE,142,7.0,-999.0,48,-99.99,,,-99.99,,2013-07-12 18:48:00,
2013-07-12 13:55:00,82.0,60.0,30.03,North,350,7.0,-999.0,47,-99.99,,,-99.99,,2013-07-12 18:55:00,
2013-07-12 14:15:00,83.0,61.0,30.03,East,87,6.0,-999.0,48,-99.99,,,-99.99,,2013-07-12 19:15:00,
2013-07-12 14:23:00,83.0,60.0,30.02,SE,129,7.0,-999.0,46,-99.99,,,-99.99,,2013-07-12 19:23:00,
2013-07-12 14:33:00,83.0,60.0,30.02,SE,129,7.0,-999.0,46,-99.99,,,-99.99,,2013-07-12 19:33:00,
2013-07-12 14:46:00,83.0,59.0,30.02,SE,136,7.0,-999.0,45,-99.99,,,-99.99,,2013-07-12 19:46:00,
2013-07-12 14:55:00,83.0,59.0,30.02,ESE,117,7.0,-999.0,45,-99.99,,,-99.99,,2013-07-12 19:55:00,
2013-07-12 15:03:00,83.0,59.0,30.02,ESE,117,7.0,-999.0,45,-99.99,,,-99.99,,2013-07-12 20:03:00,
2013-07-12 15:13:00,84.0,61.0,30.01,NE,48,5.0,-999.0,46,-99.99,,,-99.99,,2013-07-12 20:13:00,
2013-07-12 15:24:00,84.0,60.0,30.01,ESE,118,6.0,-999.0,45,-99.99,,,-99.99,,2013-07-12 20:24:00,
2013-07-12 15:33:00,84.0,60.0,30.01,ESE,118,6.0,-999.0,45,-99.99,,,-99.99,,2013-07-12 20:33:00,
2013-07-12 15:45:00,84.0,59.0,30.01,West,274,6.0,-999.0,43,-99.99,,,-99.99,,2013-07-12 20:45:00,
2013-07-12 15:54:00,85.0,61.0,30.01,SE,135,5.0,-999.0,44,-99.99,,,-99.99,,2013-07-12 20:54:00,
2013-07-12 16:03:00,85.0,61.0,30.01,SE,135,5.0,-999.0,44,-99.99,,,-99.99,,2013-07-12 21:03:00,
2013-07-12 16:15:00,85.0,60.0,30.01,WNW,298,5.0,-999.0,43,-99.99,,,-99.99,,2013-07-12 21:15:00,
2013-07-12 16:25:00,85.0,61.0,30.01,ESE,121,5.0,-999.0,44,-99.99,,,-99.99,,2013-07-12 21:25:00,
2013-07-12 16:35:00,85.0,61.0,30.01,ESE,121,5.0,-999.0,44,-99.99,,,-99.99,,2013-07-12 21:35:00,
2013-07-12 16:46:00,84.0,60.0,30.00,ESE,121,7.0,-999.0,44,-99.99,,,-99.99,,2013-07-12 21:46:00,
2013-07-12 16:54:00,85.0,61.0,30.00,ESE,107,5.0,-999.0,44,-99.99,,,-99.99,,2013-07-12 21:54:00,
2013-07-12 17:04:00,85.0,61.0,30.00,ESE,107,5.0,-999.0,44,-99.99,,,-99.99,,2013-07-12 22:04:00,
2013-07-12 17:16:00,84.0,60.0,30.00,East,85,5.0,-999.0,44,-99.99,,,-99.99,,2013-07-12 22:16:00,
2013-07-12 17:33:00,84.0,60.0,30.00,ESE,108,7.0,-999.0,44,-99.99,,,-99.99,,2013-07-12 22:33:00,
2013-07-12 17:44:00,83.0,59.0,29.99,ESE,119,8.0,-999.0,44,-99.99,,,-99.99,,2013-07-12 22:44:00,
2013-07-12 17:54:00,83.0,58.0,29.99,East,97,6.0,-999.0,43,-99.99,,,-99.99,,2013-07-12 22:54:00,
2013-07-12 18:04:00,83.0,58.0,29.99,East,97,6.0,-999.0,43,-99.99,,,-99.99,,2013-07-12 23:04:00,
2013-07-12 18:13:00,83.0,58.0,29.99,ESE,119,7.0,-999.0,42,-99.99,,,-99.99,,2013-07-12 23:13:00,
2013-07-12 18:35:00,83.0,58.0,29.98,ESE,105,6.0,-999.0,42,-99.99,,,-99.99,,2013-07-12 23:35:00,
2013-07-12 18:43:00,83.0,58.0,29.99,ESE,105,5.0,-999.0,42,-99.99,,,-99.99,,2013-07-12 23:43:00,
2013-07-12 18:54:00,83.0,57.0,29.99,ESE,111,4.0,-999.0,41,-99.99,,,-99.99,,2013-07-12 23:54:00,
2013-07-12 19:17:00,82.0,56.0,29.98,East,96,4.0,-999.0,41,-99.99,,,-99.99,,2013-07-13 00:17:00,
2013-07-12 19:25:00,82.0,57.0,29.99,East,84,4.0,-999.0,42,-99.99,,,-99.99,,2013-07-13 00:25:00,
2013-07-12 19:33:00,82.0,57.0,29.99,East,84,4.0,-999.0,42,-99.99,,,-99.99,,2013-07-13 00:33:00,
2013-07-12 19:46:00,81.0,58.0,29.99,ESE,119,4.0,-999.0,45,-99.99,,,-99.99,,2013-07-13 00:46:00,
2013-07-12 19:54:00,81.0,58.0,29.99,ESE,119,4.0,-999.0,45,-99.99,,,-99.99,,2013-07-13 00:54:00,
2013-07-12 20:04:00,81.0,58.0,29.99,ESE,112,3.0,-999.0,45,-99.99,,,-99.99,,2013-07-13 01:04:00,
2013-07-12 20:13:00,80.0,57.0,29.99,SE,127,3.0,-999.0,46,-99.99,,,-99.99,,2013-07-13 01:13:00,
2013-07-12 20:24:00,80.0,57.0,29.99,SE,127,3.0,-999.0,46,-99.99,,,-99.99,,2013-07-13 01:24:00,
2013-07-12 20:37:00,80.0,57.0,29.99,SE,127,3.0,-999.0,46,-99.99,,,-99.99,,2013-07-13 01:37:00,
2013-07-12 20:55:00,76.0,58.0,29.98,SE,135,2.0,-999.0,53,-99.99,,,-99.99,,2013-07-13 01:55:00,
2013-07-12 21:05:00,76.0,58.0,29.98,SE,135,2.0,-999.0,53,-99.99,,,-99.99,,2013-07-13 02:05:00,
2013-07-12 21:14:00,75.0,58.0,29.98,ESE,117,1.0,-999.0,56,-99.99,,,-99.99,,2013-07-13 02:14:00,
2013-07-12 21:46:00,73.0,58.0,29.98,SSE,161,3.0,-999.0,60,-99.99,,,-99.99,,2013-07-13 02:46:00,
2013-07-12 21:53:00,72.0,58.0,29.98,SE,132,1.0,-999.0,62,-99.99,,,-99.99,,2013-07-13 02:53:00,
2013-07-12 22:05:00,72.0,58.0,29.98,SE,132,1.0,-999.0,62,-99.99,,,-99.99,,2013-07-13 03:05:00,
2013-07-12 22:13:00,71.0,58.0,29.98,SE,134,2.0,-999.0,64,-99.99,,,-99.99,,2013-07-13 03:13:00,
2013-07-12 22:26:00,71.0,59.0,29.98,SE,132,1.0,-999.0,66,-99.99,,,-99.99,,2013-07-13 03:26:00,
2013-07-12 22:36:00,71.0,59.0,29.98,SE,132,1.0,-999.0,66,-99.99,,,-99.99,,2013-07-13 03:36:00,
2013-07-12 22:45:00,70.0,59.0,29.99,SE,132,1.0,-999.0,68,-99.99,,,-99.99,,2013-07-13 03:45:00,
2013-07-12 22:55:00,69.0,58.0,29.98,SE,129,2.0,-999.0,69,-99.99,,,-99.99,,2013-07-13 03:55:00,
2013-07-12 23:01:00,69.0,58.0,29.98,SE,129,2.0,-999.0,69,-99.99,,,-99.99,,2013-07-13 04:01:00,
2013-07-12 23:12:00,69.0,59.0,29.98,ESE,120,1.0,-999.0,70,-99.99,,,-99.99,,2013-07-13 04:12:00,
2013-07-12 23:22:00,68.0,58.0,29.98,SE,132,3.0,-999.0,71,-99.99,,,-99.99,,2013-07-13 04:22:00,
2013-07-12 23:32:00,68.0,58.0,29.98,SE,132,3.0,-999.0,71,-99.99,,,-99.99,,2013-07-13 04:32:00,
2013-07-12 23:43:00,68.0,59.0,29.98,SE,124,3.0,-999.0,72,-99.99,,,-99.99,,2013-07-13 04:43:00,
2013-07-12 23:52:00,68.0,59.0,29.99,ESE,122,3.0,-999.0,73,-99.99,,,-99.99,,2013-07-13 04:52:00,